This demonstration page uses our WeatherBlox Daily Observations layout. Learn more.

Left ArrowRight Arrow

41.12389, -100.76542

Hourly Observations for March 6, 2015

Temp ( °F °C ) Dew Point ( °F °C ) Humidity (%) Winds ( mph kmh ) Pressure ( in mb ) Visibility ( mi km ) Precip ( " mm )
12:53 am 00:53 Clear 18 -7.8 10 -12.2 71 71 NNW 7 11 30.30 1026 10 16 0.00 0.00
1:53 am 01:53 Clear 17 -8.3 10 -12.2 74 74 NW 6 9 30.29 1026 10 16 0.00 0.00
2:53 am 02:53 Clear 18 -7.8 12 -11.1 77 77 NW 6 9 30.28 1025 10 16 0.00 0.00
3:53 am 03:53 Clear 15 -9.4 11 -11.7 84 84 NW 6 9 30.28 1025 10 16 0.00 0.00
4:53 am 04:53 Clear 14 -10 10 -12.2 84 84 NW 6 9 30.28 1025 10 16 0.00 0.00
5:53 am 05:53 Clear 16 -8.9 11 -11.7 80 80 NW 6 9 30.27 1025 10 16 0.00 0.00
6:53 am 06:53 Clear 15 -9.4 12 -11.1 88 88 NW 7 11 30.30 1026 10 16 0.00 0.00
7:53 am 07:53 Sunny 22 -5.6 17 -8.3 82 82 NW 5 7 30.31 1026 10 16 0.00 0.00
8:53 am 08:53 Sunny 31 -0.6 24 -4.4 76 76 NW 8 13 30.32 1027 10 16 0.00 0.00
9:53 am 09:53 Sunny 42 5.6 23 -5 47 47 W 13 20 30.31 1026 10 16 0.00 0.00
10:53 am 10:53 Sunny 49 9.4 22 -5.6 35 35 W 12 19 30.29 1026 10 16 0.00 0.00
11:53 am 11:53 Sunny 56 13.3 19 -7.2 24 24 W 10 17 30.27 1025 10 16 0.00 0.00
12:53 pm 12:53 Sunny 60 15.6 17 -8.3 19 19 WNW 16 26 30.25 1024 10 16 0.00 0.00
1:53 pm 13:53 Sunny 61 16 16 -9 17 17 WNW 14 22 30.09 1019 10 16 0.00 0.00
2:53 pm 14:53 Sunny 61 16.1 15 -9.4 17 17 WNW 21 33 30.19 1022 10 16 0.00 0.00
3:53 pm 15:53 Sunny 63 17.2 14 -10 15 15 W 17 28 30.18 1022 10 16 0.00 0.00
4:53 pm 16:53 Sunny 62 16.7 13 -10.6 14 14 W 18 30 30.18 1022 10 16 0.00 0.00
5:53 pm 17:53 Sunny 58 14.4 13 -10.6 17 17 WNW 15 24 30.18 1022 10 16 0.00 0.00
6:53 pm 18:53 Clear 41 5 13 -10.6 32 32 WNW 7 11 30.23 1024 10 16 0.00 0.00
7:53 pm 19:53 Clear 38 3.3 14 -10 37 37 Calm 30.23 1024 10 16 0.00 0.00
8:53 pm 20:53 Clear 32 0 17 -8.3 54 54 W 5 7 30.24 1024 10 16 0.00 0.00
9:53 pm 21:53 Clear 30 -1.1 16 -8.9 56 56 W 5 7 30.24 1024 10 16 0.00 0.00
10:53 pm 22:53 Clear 28 -2.2 15 -9.4 58 58 NW 7 11 30.24 1024 10 16 0.00 0.00
11:53 pm 23:53 Clear 25 -3.9 15 -9.4 66 66 WNW 7 11 30.24 1024 10 16 0.00 0.00

Powered by AerisWeather